Hourly Weather Klajpeda

Today, 29 July, Thursday

Time Temperature Precipitation Wind Pressure Humidity
00:00 +18°C° 2 mm 3 mps 735 mmHg 93%
01:00 +18°C° 2 mm 3 mps 735 mmHg 93%
02:00 +18°C° 0 mm 2 mps 734 mmHg 94%
03:00 +18°C° 0.6 mm 2 mps 734 mmHg 95%
04:00 +18°C° 0.6 mm 2 mps 734 mmHg 96%
05:00 +18°C° 0.6 mm 2 mps 734 mmHg 97%
06:00 +18°C° 0.4 mm 2 mps 734 mmHg 96%
07:00 +19°C° 0.4 mm 2 mps 734 mmHg 95%
08:00 +19°C° 0.4 mm 2 mps 734 mmHg 94%
09:00 +21°C° 0.1 mm 3 mps 734 mmHg 85%
10:00 +22°C° 0.1 mm 3 mps 734 mmHg 75%
11:00 +25°C° 0.1 mm 4 mps 734 mmHg 66%
12:00 +25°C° 0.1 mm 4 mps 734 mmHg 62%
13:00 +26°C° 0.1 mm 4 mps 734 mmHg 58%
14:00 +26°C° 0.1 mm 5 mps 734 mmHg 54%
15:00 +25°C° 0.1 mm 4 mps 734 mmHg 59%
16:00 +23°C° 0.1 mm 4 mps 734 mmHg 63%
17:00 +22°C° 0.1 mm 4 mps 734 mmHg 68%
18:00 +21°C° 0.1 mm 3 mps 734 mmHg 73%
19:00 +20°C° 0.1 mm 3 mps 734 mmHg 78%
20:00 +19°C° 0.1 mm 2 mps 734 mmHg 83%
21:00 +18°C° 0 mm 2 mps 734 mmHg 84%
22:00 +17°C° 0 mm 2 mps 734 mmHg 86%
23:00 +16°C° 0 mm 2 mps 734 mmHg 87%

Tomorrow, 30 July, Friday

Time Temperature Precipitation Wind Pressure Humidity
00:00 +16°C° 0 mm 2 mps 734 mmHg 86%
01:00 +16°C° 0 mm 2 mps 734 mmHg 85%
02:00 +17°C° 0 mm 2 mps 734 mmHg 84%
03:00 +16°C° 0 mm 2 mps 734 mmHg 85%
04:00 +14°C° 0 mm 3 mps 734 mmHg 86%
05:00 +13°C° 0 mm 3 mps 734 mmHg 87%
06:00 +14°C° 0 mm 4 mps 734 mmHg 80%
07:00 +17°C° 0 mm 4 mps 734 mmHg 74%
08:00 +17°C° 0 mm 5 mps 734 mmHg 68%
09:00 +19°C° 0 mm 5 mps 734 mmHg 62%
10:00 +20°C° 0 mm 6 mps 734 mmHg 57%
11:00 +21°C° 0 mm 6 mps 734 mmHg 51%
12:00 +22°C° 0 mm 7 mps 734 mmHg 48%
13:00 +22°C° 0 mm 7 mps 733 mmHg 45%
14:00 +23°C° 0 mm 7 mps 733 mmHg 41%
15:00 +23°C° 0 mm 7 mps 733 mmHg 43%
16:00 +23°C° 0 mm 6 mps 733 mmHg 45%
17:00 +23°C° 0 mm 6 mps 732 mmHg 47%
18:00 +21°C° 0 mm 5 mps 732 mmHg 52%
19:00 +20°C° 0 mm 4 mps 732 mmHg 56%
20:00 +19°C° 0 mm 3 mps 732 mmHg 61%
21:00 +18°C° 0 mm 3 mps 732 mmHg 63%
22:00 +17°C° 0 mm 3 mps 732 mmHg 65%
23:00 +15°C° 0 mm 4 mps 732 mmHg 68%

Day after tomorrow, 31 July, Saturday

Time Temperature Precipitation Wind Pressure Humidity
00:00 +14°C° 0 mm 3 mps 732 mmHg 69%
01:00 +14°C° 0 mm 3 mps 732 mmHg 71%
02:00 +13°C° 0 mm 3 mps 732 mmHg 73%
03:00 +13°C° 0 mm 3 mps 732 mmHg 74%
04:00 +13°C° 0 mm 3 mps 732 mmHg 75%
05:00 +12°C° 0 mm 4 mps 732 mmHg 75%
06:00 +14°C° 0 mm 4 mps 732 mmHg 72%
07:00 +17°C° 0 mm 4 mps 733 mmHg 69%
08:00 +18°C° 0 mm 4 mps 733 mmHg 66%
09:00 +20°C° 0 mm 4 mps 733 mmHg 61%
10:00 +21°C° 0 mm 4 mps 733 mmHg 57%
11:00 +22°C° 0 mm 4 mps 733 mmHg 52%
12:00 +23°C° 0 mm 4 mps 733 mmHg 50%
13:00 +25°C° 0 mm 4 mps 733 mmHg 49%
14:00 +26°C° 0 mm 4 mps 733 mmHg 48%
15:00 +26°C° 0 mm 3 mps 733 mmHg 49%
16:00 +26°C° 0 mm 3 mps 732 mmHg 50%
17:00 +26°C° 0 mm 2 mps 732 mmHg 52%
18:00 +25°C° 0.1 mm 3 mps 732 mmHg 59%
19:00 +22°C° 0.1 mm 3 mps 732 mmHg 65%
20:00 +20°C° 0.1 mm 3 mps 731 mmHg 72%
21:00 +19°C° 0.2 mm 4 mps 732 mmHg 78%
22:00 +18°C° 0.2 mm 4 mps 732 mmHg 84%
23:00 +16°C° 0.2 mm 5 mps 732 mmHg 90%

1 August, Sunday

Time Temperature Precipitation Wind Pressure Humidity
00:00 +16°C° 0 mm 5 mps 732 mmHg 91%
01:00 +16°C° 0 mm 5 mps 731 mmHg 93%
02:00 +15°C° 0 mm 5 mps 731 mmHg 94%
03:00 +15°C° 0 mm 4 mps 731 mmHg 95%
04:00 +14°C° 0 mm 4 mps 731 mmHg 95%
05:00 +14°C° 0 mm 3 mps 731 mmHg 96%
06:00 +15°C° 0 mm 4 mps 732 mmHg 89%
07:00 +17°C° 0 mm 4 mps 732 mmHg 81%
08:00 +17°C° 0 mm 5 mps 732 mmHg 74%
09:00 +19°C° 0 mm 5 mps 733 mmHg 67%
10:00 +21°C° 0 mm 5 mps 733 mmHg 60%
11:00 +22°C° 0 mm 5 mps 733 mmHg 53%
12:00 +23°C° 0 mm 5 mps 733 mmHg 51%
13:00 +23°C° 0 mm 5 mps 733 mmHg 49%
14:00 +25°C° 0 mm 4 mps 733 mmHg 47%
15:00 +23°C° 0.1 mm 4 mps 733 mmHg 54%
16:00 +21°C° 0.1 mm 4 mps 733 mmHg 62%
17:00 +20°C° 0.1 mm 4 mps 733 mmHg 69%
18:00 +19°C° 0 mm 3 mps 733 mmHg 75%
19:00 +18°C° 0 mm 2 mps 733 mmHg 81%
20:00 +16°C° 0 mm 2 mps 733 mmHg 87%
21:00 +16°C° 0 mm 1 mps 733 mmHg 88%
22:00 +16°C° 0 mm 1 mps 733 mmHg 90%
23:00 +15°C° 0 mm 1 mps 733 mmHg 91%

2 August, Monday

Time Temperature Precipitation Wind Pressure Humidity
00:00 +15°C° 0 mm 1 mps 733 mmHg 91%
01:00 +15°C° 0 mm 1 mps 733 mmHg 91%
02:00 +15°C° 0 mm 1 mps 733 mmHg 91%
03:00 +15°C° 0 mm 1 mps 733 mmHg 92%
04:00 +14°C° 0 mm 2 mps 733 mmHg 92%
05:00 +14°C° 0 mm 2 mps 733 mmHg 93%
06:00 +15°C° 0 mm 2 mps 733 mmHg 88%
07:00 +16°C° 0 mm 3 mps 733 mmHg 83%
08:00 +17°C° 0 mm 3 mps 733 mmHg 78%
09:00 +18°C° 0.1 mm 4 mps 733 mmHg 73%
10:00 +18°C° 0.1 mm 4 mps 733 mmHg 67%
11:00 +19°C° 0.1 mm 5 mps 734 mmHg 62%
12:00 +19°C° 0.2 mm 5 mps 734 mmHg 63%
13:00 +19°C° 0.2 mm 6 mps 734 mmHg 65%
14:00 +20°C° 0.2 mm 6 mps 734 mmHg 66%
15:00 +20°C° 0.1 mm 6 mps 734 mmHg 61%
16:00 +21°C° 0.1 mm 6 mps 734 mmHg 55%
17:00 +21°C° 0.1 mm 6 mps 734 mmHg 50%
18:00 +20°C° 0 mm 5 mps 735 mmHg 56%
19:00 +18°C° 0 mm 4 mps 735 mmHg 63%
20:00 +17°C° 0 mm 4 mps 735 mmHg 70%
21:00 +14°C° 0 mm 3 mps 735 mmHg 75%
22:00 +13°C° 0 mm 3 mps 736 mmHg 81%
23:00 +12°C° 0 mm 3 mps 736 mmHg 86%

3 August, Tuesday

Time Temperature Precipitation Wind Pressure Humidity
00:00 +12°C° 0 mm 3 mps 736 mmHg 88%
01:00 +11°C° 0 mm 3 mps 736 mmHg 89%
02:00 +11°C° 0 mm 3 mps 736 mmHg 90%
03:00 +11°C° 0 mm 3 mps 736 mmHg 90%
04:00 +13°C° 0 mm 2 mps 737 mmHg 90%
05:00 +13°C° 0 mm 2 mps 737 mmHg 90%
06:00 +13°C° 0 mm 3 mps 737 mmHg 86%
07:00 +16°C° 0 mm 3 mps 737 mmHg 81%
08:00 +17°C° 0 mm 3 mps 737 mmHg 77%
09:00 +18°C° 0.2 mm 3 mps 737 mmHg 72%
10:00 +19°C° 0.2 mm 3 mps 738 mmHg 67%
11:00 +21°C° 0.2 mm 3 mps 738 mmHg 63%
12:00 +21°C° 0.6 mm 3 mps 738 mmHg 62%
13:00 +21°C° 0.6 mm 4 mps 738 mmHg 61%
14:00 +21°C° 0.6 mm 4 mps 737 mmHg 61%
15:00 +21°C° 0.2 mm 3 mps 738 mmHg 60%
16:00 +21°C° 0.2 mm 3 mps 738 mmHg 59%
17:00 +21°C° 0.2 mm 3 mps 738 mmHg 58%
18:00 +20°C° 0.2 mm 2 mps 738 mmHg 63%
19:00 +19°C° 0.2 mm 2 mps 738 mmHg 69%
20:00 +18°C° 0.2 mm 1 mps 738 mmHg 74%
21:00 +18°C° 0 mm 1 mps 738 mmHg 75%
22:00 +16°C° 0 mm 1 mps 738 mmHg 76%
23:00 +16°C° 0 mm 1 mps 738 mmHg 78%
Show more